Time,TemperatureF,DewpointF,PressureIn,WindDirection,WindDirectionDegrees,WindSpeedMPH,WindSpeedGustMPH,Humidity,HourlyPrecipIn,Conditions,Clouds,dailyrainin,SoftwareType,DateUTC
2013-05-18 00:01:00,60.1,42.5,30.14,SE,135,0.0,0.0,52,0.00,RMK 75.6/39.0,,0.00,WUHU21623XXSP,2013-05-18 04:01:00,
2013-05-18 00:06:00,60.1,42.5,30.14,East,90,0.0,0.0,52,0.00,RMK 75.6/39.0,,0.00,WUHU21623XXSP,2013-05-18 04:06:00,
2013-05-18 00:12:00,59.9,41.7,30.15,SE,135,0.0,0.0,51,0.00,RMK 75.7/39.0,,0.00,WUHU21623XXSP,2013-05-18 04:12:00,
2013-05-18 00:16:00,59.9,41.7,30.14,ESE,112,0.0,0.0,51,0.00,RMK 75.7/39.0,,0.00,WUHU21623XXSP,2013-05-18 04:16:00,
2013-05-18 00:21:00,59.9,41.7,30.15,SE,135,0.0,0.0,51,0.00,RMK 75.7/39.0,,0.00,WUHU21623XXSP,2013-05-18 04:21:00,
2013-05-18 00:26:00,59.6,41.5,30.14,ESE,112,0.0,0.0,51,0.00,RMK 75.7/39.0,,0.00,WUHU21623XXSP,2013-05-18 04:26:00,
2013-05-18 00:31:00,59.6,41.5,30.14,SE,135,0.0,0.0,51,0.00,RMK 75.7/39.0,,0.00,WUHU21623XXSP,2013-05-18 04:31:00,
2013-05-18 00:37:00,59.4,41.3,30.14,SSE,157,0.0,0.0,51,0.00,RMK 75.9/39.0,,0.00,WUHU21623XXSP,2013-05-18 04:37:00,
2013-05-18 00:42:00,59.2,41.1,30.14,SE,135,0.0,5.6,51,0.00,RMK 75.9/39.0,,0.00,WUHU21623XXSP,2013-05-18 04:42:00,
2013-05-18 00:47:00,59.2,41.1,30.13,SE,135,0.0,6.5,51,0.00,RMK 75.9/39.0,,0.00,WUHU21623XXSP,2013-05-18 04:47:00,
2013-05-18 00:52:00,59.0,40.9,30.13,SE,135,0.0,6.5,51,0.00,RMK 75.9/39.0,,0.00,WUHU21623XXSP,2013-05-18 04:52:00,
2013-05-18 00:57:00,59.0,40.9,30.13,ESE,112,0.0,0.4,51,0.00,RMK 75.9/39.0,,0.00,WUHU21623XXSP,2013-05-18 04:57:00,
2013-05-18 01:02:00,59.0,40.9,30.14,SE,135,0.0,0.4,51,0.00,RMK 75.9/39.0,,0.00,WUHU21623XXSP,2013-05-18 05:02:00,
2013-05-18 01:07:00,58.9,41.3,30.14,SE,135,0.0,0.0,52,0.00,RMK 75.9/39.0,,0.00,WUHU21623XXSP,2013-05-18 05:07:00,
2013-05-18 01:12:00,58.7,41.2,30.13,SE,135,0.0,0.0,52,0.00,RMK 75.9/39.0,,0.00,WUHU21623XXSP,2013-05-18 05:12:00,
2013-05-18 01:17:00,58.5,41.0,30.13,SSE,157,0.0,0.0,52,0.00,RMK 75.9/39.0,,0.00,WUHU21623XXSP,2013-05-18 05:17:00,
2013-05-18 01:22:00,58.3,40.8,30.14,SE,135,0.0,0.0,52,0.00,RMK 75.9/39.0,,0.00,WUHU21623XXSP,2013-05-18 05:22:00,
2013-05-18 01:27:00,58.3,41.3,30.13,SE,135,0.0,0.9,53,0.00,RMK 75.9/39.0,,0.00,WUHU21623XXSP,2013-05-18 05:27:00,
2013-05-18 01:32:00,58.3,41.3,30.13,SE,135,0.0,0.9,53,0.00,RMK 75.9/39.0,,0.00,WUHU21623XXSP,2013-05-18 05:32:00,
2013-05-18 01:37:00,58.3,41.8,30.14,SE,135,0.0,0.0,54,0.00,RMK 75.9/39.0,,0.00,WUHU21623XXSP,2013-05-18 05:37:00,
2013-05-18 01:42:00,58.3,41.3,30.13,SSE,157,0.0,3.6,53,0.00,RMK 75.9/39.0,,0.00,WUHU21623XXSP,2013-05-18 05:42:00,
2013-05-18 01:47:00,58.3,41.8,30.13,ESE,112,0.0,3.6,54,0.00,RMK 75.9/39.0,,0.00,WUHU21623XXSP,2013-05-18 05:47:00,
2013-05-18 01:52:00,58.3,41.8,30.13,ESE,112,0.0,0.0,54,0.00,RMK 75.9/38.0,,0.00,WUHU21623XXSP,2013-05-18 05:52:00,
2013-05-18 01:57:00,58.3,42.3,30.13,SE,135,0.0,0.0,55,0.00,RMK 75.9/38.0,,0.00,WUHU21623XXSP,2013-05-18 05:57:00,
2013-05-18 02:02:00,58.3,42.3,30.14,SE,135,0.0,0.0,55,0.00,RMK 75.9/38.0,,0.00,WUHU21623XXSP,2013-05-18 06:02:00,
2013-05-18 02:07:00,58.3,42.3,30.13,SE,135,0.0,0.0,55,0.00,RMK 75.9/38.0,,0.00,WUHU21623XXSP,2013-05-18 06:07:00,
2013-05-18 02:12:00,58.3,42.3,30.13,SE,135,0.0,0.0,55,0.00,RMK 75.9/38.0,,0.00,WUHU21623XXSP,2013-05-18 06:12:00,
2013-05-18 02:17:00,58.3,42.3,30.13,SE,135,0.0,0.0,55,0.00,RMK 75.9/38.0,,0.00,WUHU21623XXSP,2013-05-18 06:17:00,
2013-05-18 02:22:00,58.3,42.3,30.13,SSE,157,0.0,0.0,55,0.00,RMK 75.9/39.0,,0.00,WUHU21623XXSP,2013-05-18 06:22:00,
2013-05-18 02:27:00,58.3,42.8,30.14,East,90,0.0,0.0,56,0.00,RMK 75.9/38.0,,0.00,WUHU21623XXSP,2013-05-18 06:27:00,
2013-05-18 02:32:00,58.1,42.6,30.14,SE,135,0.0,0.0,56,0.00,RMK 75.7/38.0,,0.00,WUHU21623XXSP,2013-05-18 06:32:00,
2013-05-18 02:37:00,58.3,42.8,30.14,SE,135,0.0,0.0,56,0.00,RMK 75.9/38.0,,0.00,WUHU21623XXSP,2013-05-18 06:37:00,
2013-05-18 02:42:00,58.3,43.2,30.13,SE,135,0.0,0.0,57,0.00,RMK 75.9/38.0,,0.00,WUHU21623XXSP,2013-05-18 06:42:00,
2013-05-18 02:47:00,58.1,43.0,30.13,SE,135,0.0,0.0,57,0.00,RMK 75.7/38.0,,0.00,WUHU21623XXSP,2013-05-18 06:47:00,
2013-05-18 02:52:00,58.1,43.0,30.13,SE,135,0.0,0.0,57,0.00,RMK 75.7/38.0,,0.00,WUHU21623XXSP,2013-05-18 06:52:00,
2013-05-18 02:57:00,58.0,42.9,30.13,SE,135,0.0,0.0,57,0.00,RMK 75.7/38.0,,0.00,WUHU21623XXSP,2013-05-18 06:57:00,
2013-05-18 03:01:00,58.0,42.9,30.13,SE,135,0.0,0.0,57,0.00,RMK 75.7/38.0,,0.00,WUHU21623XXSP,2013-05-18 07:01:00,
2013-05-18 03:07:00,58.1,43.0,30.13,SE,135,0.0,0.0,57,0.00,RMK 75.6/38.0,,0.00,WUHU21623XXSP,2013-05-18 07:07:00,
2013-05-18 03:12:00,57.8,42.8,30.12,SE,135,0.0,0.0,57,0.00,RMK 75.4/38.0,,0.00,WUHU21623XXSP,2013-05-18 07:12:00,
2013-05-18 03:16:00,57.8,42.8,30.13,SE,135,0.0,0.0,57,0.00,RMK 75.2/38.0,,0.00,WUHU21623XXSP,2013-05-18 07:16:00,
2013-05-18 03:21:00,57.8,42.3,30.13,SE,135,0.0,0.0,56,0.00,RMK 75.2/38.0,,0.00,WUHU21623XXSP,2013-05-18 07:21:00,
2013-05-18 03:26:00,57.8,42.8,30.13,SE,135,0.0,0.0,57,0.00,RMK 74.8/39.0,,0.00,WUHU21623XXSP,2013-05-18 07:26:00,
2013-05-18 03:31:00,57.6,42.6,30.13,SE,135,0.0,0.0,57,0.00,RMK 74.8/39.0,,0.00,WUHU21623XXSP,2013-05-18 07:31:00,
2013-05-18 03:36:00,57.6,42.6,30.13,SE,135,0.0,0.0,57,0.00,RMK 74.7/39.0,,0.00,WUHU21623XXSP,2013-05-18 07:36:00,
2013-05-18 03:41:00,57.4,42.4,30.13,SE,135,0.0,0.0,57,0.00,RMK 74.5/39.0,,0.00,WUHU21623XXSP,2013-05-18 07:41:00,
2013-05-18 03:46:00,57.4,42.8,30.13,SE,135,0.0,0.0,58,0.00,RMK 74.5/39.0,,0.00,WUHU21623XXSP,2013-05-18 07:46:00,
2013-05-18 03:51:00,57.4,42.8,30.13,SE,135,0.0,0.0,58,0.00,RMK 74.3/39.0,,0.00,WUHU21623XXSP,2013-05-18 07:51:00,
2013-05-18 03:56:00,57.4,42.8,30.13,SE,135,0.0,0.0,58,0.00,RMK 74.3/39.0,,0.00,WUHU21623XXSP,2013-05-18 07:56:00,
2013-05-18 04:01:00,57.2,42.7,30.13,SE,135,0.0,0.0,58,0.00,RMK 74.1/39.0,,0.00,WUHU21623XXSP,2013-05-18 08:01:00,
2013-05-18 04:06:00,57.2,43.1,30.12,SE,135,0.0,0.0,59,0.00,RMK 74.1/39.0,,0.00,WUHU21623XXSP,2013-05-18 08:06:00,
2013-05-18 04:11:00,57.1,43.0,30.12,SE,135,0.0,0.0,59,0.00,RMK 73.9/39.0,,0.00,WUHU21623XXSP,2013-05-18 08:11:00,
2013-05-18 04:17:00,56.9,42.8,30.12,ESE,112,0.0,0.0,59,0.00,RMK 73.8/39.0,,0.00,WUHU21623XXSP,2013-05-18 08:17:00,
2013-05-18 04:22:00,56.9,43.3,30.12,East,90,0.0,0.0,60,0.00,RMK 73.8/39.0,,0.00,WUHU21623XXSP,2013-05-18 08:22:00,
2013-05-18 04:27:00,56.5,42.9,30.13,East,90,0.0,0.0,60,0.00,RMK 73.8/39.0,,0.00,WUHU21623XXSP,2013-05-18 08:27:00,
2013-05-18 04:32:00,56.5,42.9,30.13,NE,45,0.0,0.0,60,0.00,RMK 73.6/39.0,,0.00,WUHU21623XXSP,2013-05-18 08:32:00,
2013-05-18 04:37:00,56.5,43.3,30.13,NE,45,0.0,0.0,61,0.00,RMK 73.6/39.0,,0.00,WUHU21623XXSP,2013-05-18 08:37:00,
2013-05-18 04:42:00,56.5,43.3,30.13,NE,45,0.0,0.0,61,0.00,RMK 73.6/39.0,,0.00,WUHU21623XXSP,2013-05-18 08:42:00,
2013-05-18 04:47:00,56.5,43.3,30.13,NE,45,0.0,0.0,61,0.00,RMK 73.4/39.0,,0.00,WUHU21623XXSP,2013-05-18 08:47:00,
2013-05-18 04:52:00,56.5,43.3,30.13,NE,45,0.0,0.0,61,0.00,RMK 73.4/39.0,,0.00,WUHU21623XXSP,2013-05-18 08:52:00,
2013-05-18 04:57:00,56.3,43.1,30.13,NE,45,0.0,0.0,61,0.00,RMK 73.4/39.0,,0.00,WUHU21623XXSP,2013-05-18 08:57:00,
2013-05-18 05:02:00,56.3,43.1,30.14,NE,45,0.0,0.0,61,0.00,RMK 73.4/39.0,,0.00,WUHU21623XXSP,2013-05-18 09:02:00,
2013-05-18 05:07:00,56.3,43.6,30.13,NE,45,0.0,0.0,62,0.00,RMK 73.2/39.0,,0.00,WUHU21623XXSP,2013-05-18 09:07:00,
2013-05-18 05:12:00,56.0,43.3,30.13,NE,45,0.0,0.0,62,0.00,RMK 73.2/40.0,,0.00,WUHU21623XXSP,2013-05-18 09:12:00,
2013-05-18 05:17:00,56.0,43.3,30.13,NE,45,0.0,0.0,62,0.00,RMK 73.2/40.0,,0.00,WUHU21623XXSP,2013-05-18 09:17:00,
2013-05-18 05:22:00,56.0,43.3,30.13,ENE,67,0.0,0.0,62,0.00,RMK 73.0/40.0,,0.00,WUHU21623XXSP,2013-05-18 09:22:00,
2013-05-18 05:27:00,56.0,43.3,30.13,ESE,112,0.0,0.0,62,0.00,RMK 73.0/40.0,,0.00,WUHU21623XXSP,2013-05-18 09:27:00,
2013-05-18 05:32:00,56.0,43.3,30.13,ESE,112,0.0,0.0,62,0.00,RMK 73.0/40.0,,0.00,WUHU21623XXSP,2013-05-18 09:32:00,
2013-05-18 05:37:00,56.0,43.3,30.13,ENE,67,0.0,0.0,62,0.00,RMK 73.0/40.0,,0.00,WUHU21623XXSP,2013-05-18 09:37:00,
2013-05-18 05:42:00,56.0,43.3,30.14,SE,135,0.0,0.0,62,0.00,RMK 73.0/40.0,,0.00,WUHU21623XXSP,2013-05-18 09:42:00,
2013-05-18 05:47:00,56.0,43.3,30.14,ESE,112,0.0,0.0,62,0.00,RMK 73.0/40.0,,0.00,WUHU21623XXSP,2013-05-18 09:47:00,
2013-05-18 05:52:00,56.0,43.3,30.14,NE,45,0.0,0.0,62,0.00,RMK 73.0/40.0,,0.00,WUHU21623XXSP,2013-05-18 09:52:00,
2013-05-18 05:57:00,56.0,43.3,30.14,ESE,112,0.0,0.0,62,0.00,RMK 72.9/40.0,,0.00,WUHU21623XXSP,2013-05-18 09:57:00,
2013-05-18 06:02:00,56.0,43.3,30.15,ESE,112,0.0,0.0,62,0.00,RMK 72.9/40.0,,0.00,WUHU21623XXSP,2013-05-18 10:02:00,
2013-05-18 06:07:00,56.2,43.5,30.15,SSE,157,0.0,0.0,62,0.00,RMK 72.9/40.0,,0.00,WUHU21623XXSP,2013-05-18 10:07:00,
2013-05-18 06:12:00,56.3,43.6,30.15,ESE,112,0.0,0.0,62,0.00,RMK 72.9/40.0,,0.00,WUHU21623XXSP,2013-05-18 10:12:00,
2013-05-18 06:17:00,56.3,43.6,30.15,SE,135,0.0,0.0,62,0.00,RMK 72.9/40.0,,0.00,WUHU21623XXSP,2013-05-18 10:17:00,
2013-05-18 06:22:00,56.3,43.6,30.15,SE,135,0.0,0.0,62,0.00,RMK 72.9/40.0,,0.00,WUHU21623XXSP,2013-05-18 10:22:00,
2013-05-18 06:27:00,56.3,43.6,30.15,SE,135,0.0,0.0,62,0.00,RMK 72.9/40.0,,0.00,WUHU21623XXSP,2013-05-18 10:27:00,
2013-05-18 06:32:00,56.3,43.6,30.15,SE,135,0.0,0.0,62,0.00,RMK 72.9/40.0,,0.00,WUHU21623XXSP,2013-05-18 10:32:00,
2013-05-18 06:37:00,56.3,43.6,30.15,SE,135,0.0,0.0,62,0.00,RMK 72.7/40.0,,0.00,WUHU21623XXSP,2013-05-18 10:37:00,
2013-05-18 06:42:00,56.3,43.6,30.16,SE,135,0.0,0.0,62,0.00,RMK 72.7/40.0,,0.00,WUHU21623XXSP,2013-05-18 10:42:00,
2013-05-18 06:47:00,56.3,43.6,30.15,SE,135,0.0,0.0,62,0.00,RMK 72.7/40.0,,0.00,WUHU21623XXSP,2013-05-18 10:47:00,
2013-05-18 06:52:00,56.3,43.6,30.16,SE,135,0.0,0.0,62,0.00,RMK 72.7/40.0,,0.00,WUHU21623XXSP,2013-05-18 10:52:00,
2013-05-18 06:57:00,56.3,43.6,30.15,SE,135,0.0,0.0,62,0.00,RMK 72.7/40.0,,0.00,WUHU21623XXSP,2013-05-18 10:57:00,
2013-05-18 07:02:00,56.3,43.6,30.16,SE,135,0.0,0.0,62,0.00,RMK 72.7/40.0,,0.00,WUHU21623XXSP,2013-05-18 11:02:00,
2013-05-18 07:07:00,56.5,43.8,30.15,ENE,67,0.0,0.0,62,0.00,RMK 72.7/40.0,,0.00,WUHU21623XXSP,2013-05-18 11:07:00,
2013-05-18 07:12:00,56.5,44.2,30.15,SE,135,0.0,0.0,63,0.00,RMK 72.7/40.0,,0.00,WUHU21623XXSP,2013-05-18 11:12:00,
2013-05-18 07:17:00,56.5,43.8,30.15,SE,135,0.0,0.0,62,0.00,RMK 72.7/40.0,,0.00,WUHU21623XXSP,2013-05-18 11:17:00,
2013-05-18 07:21:00,56.5,43.8,30.15,ESE,112,0.0,0.0,62,0.00,RMK 72.7/40.0,,0.00,WUHU21623XXSP,2013-05-18 11:21:00,
2013-05-18 07:26:00,56.5,44.2,30.15,SE,135,0.0,0.0,63,0.00,RMK 72.7/40.0,,0.00,WUHU21623XXSP,2013-05-18 11:26:00,
2013-05-18 07:31:00,56.5,44.2,30.15,ESE,112,0.0,0.0,63,0.00,RMK 72.7/40.0,,0.00,WUHU21623XXSP,2013-05-18 11:31:00,
2013-05-18 07:36:00,56.5,44.2,30.15,SE,135,0.0,0.0,63,0.00,RMK 72.7/40.0,,0.00,WUHU21623XXSP,2013-05-18 11:36:00,
2013-05-18 07:41:00,56.5,44.2,30.15,SE,135,0.0,0.0,63,0.00,RMK 72.5/40.0,,0.00,WUHU21623XXSP,2013-05-18 11:41:00,
2013-05-18 07:46:00,56.7,44.4,30.15,SE,135,0.0,0.0,63,0.00,RMK 72.7/40.0,,0.00,WUHU21623XXSP,2013-05-18 11:46:00,
2013-05-18 07:51:00,56.9,44.6,30.15,SE,135,0.0,0.0,63,0.00,RMK 72.5/40.0,,0.00,WUHU21623XXSP,2013-05-18 11:51:00,
2013-05-18 07:56:00,57.2,44.8,30.15,SE,135,0.0,0.0,63,0.00,RMK 72.3/40.0,,0.00,WUHU21623XXSP,2013-05-18 11:56:00,
2013-05-18 08:01:00,57.4,44.6,30.15,SE,135,0.0,0.0,62,0.00,RMK 72.3/40.0,,0.00,WUHU21623XXSP,2013-05-18 12:01:00,
2013-05-18 08:06:00,57.6,44.4,30.15,ESE,112,0.0,0.0,61,0.00,RMK 72.0/41.0,,0.00,WUHU21623XXSP,2013-05-18 12:06:00,
2013-05-18 08:11:00,58.1,44.8,30.14,SSE,157,0.0,0.0,61,0.00,RMK 72.0/41.0,,0.00,WUHU21623XXSP,2013-05-18 12:11:00,
2013-05-18 08:16:00,58.3,45.0,30.15,SSE,157,0.0,0.0,61,0.00,RMK 72.0/41.0,,0.00,WUHU21623XXSP,2013-05-18 12:16:00,
2013-05-18 08:21:00,58.3,45.0,30.15,SE,135,0.0,0.0,61,0.00,RMK 72.0/41.0,,0.00,WUHU21623XXSP,2013-05-18 12:21:00,
2013-05-18 08:26:00,58.7,45.0,30.14,SE,135,0.0,0.0,60,0.00,RMK 72.1/41.0,,0.00,WUHU21623XXSP,2013-05-18 12:26:00,
2013-05-18 08:31:00,59.0,44.8,30.14,SE,135,0.0,0.0,59,0.00,RMK 72.1/41.0,,0.00,WUHU21623XXSP,2013-05-18 12:31:00,
2013-05-18 08:37:00,59.6,45.4,30.14,SE,135,0.0,0.0,59,0.00,RMK 72.3/41.0,,0.00,WUHU21623XXSP,2013-05-18 12:37:00,
2013-05-18 08:42:00,60.1,45.4,30.15,SE,135,0.0,0.0,58,0.00,RMK 72.3/41.0,,0.00,WUHU21623XXSP,2013-05-18 12:42:00,
2013-05-18 08:47:00,60.5,46.2,30.15,SE,135,0.0,0.0,59,0.00,RMK 72.3/41.0,,0.00,WUHU21623XXSP,2013-05-18 12:47:00,
2013-05-18 08:52:00,61.0,46.2,30.15,SE,135,0.0,0.0,58,0.00,RMK 72.5/41.0,,0.00,WUHU21623XXSP,2013-05-18 12:52:00,
2013-05-18 08:57:00,61.4,46.1,30.15,SE,135,0.0,0.0,57,0.00,RMK 72.7/41.0,,0.00,WUHU21623XXSP,2013-05-18 12:57:00,
2013-05-18 09:02:00,62.3,46.5,30.15,SE,135,0.0,0.0,56,0.00,RMK 72.7/41.0,,0.00,WUHU21623XXSP,2013-05-18 13:02:00,
2013-05-18 09:07:00,62.6,45.8,30.15,SE,135,0.0,0.0,54,0.00,RMK 72.7/41.0,,0.00,WUHU21623XXSP,2013-05-18 13:07:00,
2013-05-18 09:12:00,62.6,45.8,30.15,SE,135,0.0,0.0,54,0.00,RMK 72.9/41.0,,0.00,WUHU21623XXSP,2013-05-18 13:12:00,
2013-05-18 09:17:00,62.8,46.0,30.14,SE,135,0.0,0.0,54,0.00,RMK 72.9/41.0,,0.00,WUHU21623XXSP,2013-05-18 13:17:00,
2013-05-18 09:22:00,62.8,46.5,30.14,SE,135,0.0,0.0,55,0.00,RMK 73.0/41.0,,0.00,WUHU21623XXSP,2013-05-18 13:22:00,
2013-05-18 09:27:00,62.8,45.5,30.15,SE,135,0.0,0.0,53,0.00,RMK 73.0/41.0,,0.00,WUHU21623XXSP,2013-05-18 13:27:00,
2013-05-18 09:32:00,62.8,45.5,30.14,SE,135,0.0,0.0,53,0.00,RMK 73.0/41.0,,0.00,WUHU21623XXSP,2013-05-18 13:32:00,
2013-05-18 09:36:00,63.2,45.9,30.15,SE,135,0.0,0.0,53,0.00,RMK 73.2/41.0,,0.00,WUHU21623XXSP,2013-05-18 13:36:00,
2013-05-18 09:41:00,63.5,46.1,30.14,SSE,157,0.0,0.0,53,0.00,RMK 73.2/41.0,,0.00,WUHU21623XXSP,2013-05-18 13:41:00,
2013-05-18 09:46:00,63.7,46.3,30.13,SE,135,0.0,0.0,53,0.00,RMK 73.4/41.0,,0.00,WUHU21623XXSP,2013-05-18 13:46:00,
2013-05-18 09:51:00,63.7,45.8,30.13,SE,135,0.0,0.0,52,0.00,RMK 73.4/41.0,,0.00,WUHU21623XXSP,2013-05-18 13:51:00,
2013-05-18 09:56:00,64.1,46.7,30.13,SSE,157,0.0,0.0,53,0.00,RMK 73.6/41.0,,0.00,WUHU21623XXSP,2013-05-18 13:56:00,
2013-05-18 10:01:00,64.6,47.2,30.14,SE,135,0.0,0.0,53,0.00,RMK 73.6/41.0,,0.00,WUHU21623XXSP,2013-05-18 14:01:00,
2013-05-18 10:06:00,66.2,47.0,30.13,South,180,0.0,0.0,50,0.00,RMK 73.6/41.0,,0.00,WUHU21623XXSP,2013-05-18 14:06:00,
2013-05-18 10:11:00,66.8,47.6,30.13,SW,225,0.0,0.0,50,0.00,RMK 73.4/41.0,,0.00,WUHU21623XXSP,2013-05-18 14:11:00,
2013-05-18 10:16:00,67.7,47.9,30.13,NW,315,0.0,0.0,49,0.00,RMK 73.0/41.0,,0.00,WUHU21623XXSP,2013-05-18 14:16:00,
2013-05-18 10:21:00,68.4,48.0,30.13,ESE,112,0.0,0.0,48,0.00,RMK 72.7/41.0,,0.00,WUHU21623XXSP,2013-05-18 14:21:00,
2013-05-18 10:26:00,68.8,47.7,30.13,SSE,157,2.7,2.7,47,0.00,RMK 72.3/42.0,,0.00,WUHU21623XXSP,2013-05-18 14:26:00,
2013-05-18 10:31:00,69.5,48.4,30.13,SE,135,0.0,2.7,47,0.00,RMK 72.1/42.0,,0.00,WUHU21623XXSP,2013-05-18 14:31:00,
2013-05-18 10:36:00,69.8,48.1,30.14,NE,45,0.0,0.0,46,0.00,RMK 72.0/42.0,,0.00,WUHU21623XXSP,2013-05-18 14:36:00,
2013-05-18 10:41:00,70.7,48.3,30.14,SE,135,0.0,0.0,45,0.00,RMK 72.0/42.0,,0.00,WUHU21623XXSP,2013-05-18 14:41:00,
2013-05-18 10:46:00,70.9,47.8,30.14,SE,135,0.0,0.0,44,0.00,RMK 71.8/42.0,,0.00,WUHU21623XXSP,2013-05-18 14:46:00,
2013-05-18 10:51:00,71.6,48.5,30.14,SE,135,0.0,0.0,44,0.00,RMK 71.8/42.0,,0.00,WUHU21623XXSP,2013-05-18 14:51:00,
2013-05-18 10:56:00,72.2,49.0,30.14,SE,135,0.0,0.0,44,0.00,RMK 71.8/42.0,,0.00,WUHU21623XXSP,2013-05-18 14:56:00,
2013-05-18 11:01:00,72.2,49.0,30.14,SSE,157,0.0,0.0,44,0.00,RMK 71.8/43.0,,0.00,WUHU21623XXSP,2013-05-18 15:01:00,
2013-05-18 11:06:00,71.8,48.7,30.14,SE,135,0.0,0.0,44,0.00,RMK 71.8/43.0,,0.00,WUHU21623XXSP,2013-05-18 15:06:00,
2013-05-18 11:11:00,72.2,47.8,30.14,ESE,112,0.0,0.0,42,0.00,RMK 71.8/43.0,,0.00,WUHU21623XXSP,2013-05-18 15:11:00,
2013-05-18 11:16:00,72.2,48.4,30.14,SE,135,0.0,0.0,43,0.00,RMK 71.8/43.0,,0.00,WUHU21623XXSP,2013-05-18 15:16:00,
2013-05-18 11:21:00,72.5,48.0,30.13,SE,135,2.5,2.5,42,0.00,RMK 71.8/43.0,,0.00,WUHU21623XXSP,2013-05-18 15:21:00,
2013-05-18 11:26:00,73.1,49.9,30.13,SSW,202,0.0,2.5,44,0.00,RMK 71.8/43.0,,0.00,WUHU21623XXSP,2013-05-18 15:26:00,
2013-05-18 11:32:00,73.1,47.9,30.13,ESE,112,2.9,2.9,41,0.00,RMK 72.0/43.0,,0.00,WUHU21623XXSP,2013-05-18 15:32:00,
2013-05-18 11:36:00,73.1,47.9,30.13,SE,135,5.1,6.0,41,0.00,RMK 72.0/43.0,,0.00,WUHU21623XXSP,2013-05-18 15:36:00,
2013-05-18 11:41:00,72.9,47.7,30.13,South,180,0.0,6.0,41,0.00,RMK 72.0/43.0,,0.00,WUHU21623XXSP,2013-05-18 15:41:00,
2013-05-18 11:46:00,73.1,47.2,30.13,SE,135,0.0,0.0,40,0.00,RMK 72.0/43.0,,0.00,WUHU21623XXSP,2013-05-18 15:46:00,
2013-05-18 11:51:00,73.6,47.7,30.13,SE,135,5.8,5.8,40,0.00,RMK 72.1/43.0,,0.00,WUHU21623XXSP,2013-05-18 15:51:00,
2013-05-18 11:56:00,74.2,48.2,30.13,SE,135,0.0,5.8,40,0.00,RMK 72.1/43.0,,0.00,WUHU21623XXSP,2013-05-18 15:56:00,
2013-05-18 12:01:00,74.5,49.2,30.14,SE,135,0.0,0.0,41,0.00,RMK 72.3/43.0,,0.00,WUHU21623XXSP,2013-05-18 16:01:00,
2013-05-18 12:06:00,74.7,48.0,30.13,SE,135,0.0,0.0,39,0.00,RMK 72.3/43.0,,0.00,WUHU21623XXSP,2013-05-18 16:06:00,
2013-05-18 12:11:00,74.5,47.8,30.14,SE,135,0.0,0.0,39,0.00,RMK 72.3/43.0,,0.00,WUHU21623XXSP,2013-05-18 16:11:00,
2013-05-18 12:16:00,74.5,47.8,30.13,SE,135,0.0,0.0,39,0.00,RMK 72.3/43.0,,0.00,WUHU21623XXSP,2013-05-18 16:16:00,
2013-05-18 12:21:00,74.9,48.2,30.13,ESE,112,0.0,0.0,39,0.00,RMK 72.3/43.0,,0.00,WUHU21623XXSP,2013-05-18 16:21:00,
2013-05-18 12:26:00,75.1,48.3,30.13,SSE,157,0.0,0.0,39,0.00,RMK 72.5/43.0,,0.00,WUHU21623XXSP,2013-05-18 16:26:00,
2013-05-18 12:31:00,75.1,47.6,30.13,SE,135,0.0,0.0,38,0.00,RMK 72.5/42.0,,0.00,WUHU21623XXSP,2013-05-18 16:31:00,
2013-05-18 12:36:00,75.4,47.2,30.13,SE,135,0.0,0.0,37,0.00,RMK 72.7/42.0,,0.00,WUHU21623XXSP,2013-05-18 16:36:00,
2013-05-18 12:41:00,75.2,47.0,30.13,SE,135,0.0,0.0,37,0.00,RMK 72.7/41.0,,0.00,WUHU21623XXSP,2013-05-18 16:41:00,
2013-05-18 12:46:00,75.4,46.4,30.12,SE,135,0.0,0.0,36,0.00,RMK 72.7/41.0,,0.00,WUHU21623XXSP,2013-05-18 16:46:00,
2013-05-18 12:51:00,75.6,47.4,30.12,SE,135,0.0,8.9,37,0.00,RMK 72.9/41.0,,0.00,WUHU21623XXSP,2013-05-18 16:51:00,
2013-05-18 12:57:00,76.1,48.5,30.13,SE,135,0.0,8.9,38,0.00,RMK 73.0/41.0,,0.00,WUHU21623XXSP,2013-05-18 16:57:00,
2013-05-18 13:02:00,76.3,46.5,30.12,SE,135,0.0,6.3,35,0.00,RMK 73.0/41.0,,0.00,WUHU21623XXSP,2013-05-18 17:02:00,
2013-05-18 13:07:00,76.1,46.3,30.12,SSE,157,0.0,6.3,35,0.00,RMK 73.2/40.0,,0.00,WUHU21623XXSP,2013-05-18 17:07:00,
2013-05-18 13:12:00,76.3,47.2,30.11,SE,135,0.0,0.0,36,0.00,RMK 73.2/40.0,,0.00,WUHU21623XXSP,2013-05-18 17:12:00,
2013-05-18 13:17:00,77.0,48.6,30.11,SE,135,0.0,0.0,37,0.00,RMK 73.4/40.0,,0.00,WUHU21623XXSP,2013-05-18 17:17:00,
2013-05-18 13:22:00,76.9,47.0,30.11,SSE,157,0.0,4.7,35,0.00,RMK 73.4/40.0,,0.00,WUHU21623XXSP,2013-05-18 17:22:00,
2013-05-18 13:27:00,76.9,47.0,30.10,SSE,157,0.0,4.7,35,0.00,RMK 73.6/40.0,,0.00,WUHU21623XXSP,2013-05-18 17:27:00,
2013-05-18 13:32:00,77.4,46.7,30.11,South,180,0.0,0.0,34,0.00,RMK 73.8/40.0,,0.00,WUHU21623XXSP,2013-05-18 17:32:00,
2013-05-18 13:37:00,76.9,45.4,30.10,SE,135,0.0,0.0,33,0.00,RMK 73.8/39.0,,0.00,WUHU21623XXSP,2013-05-18 17:37:00,
2013-05-18 13:42:00,76.7,46.1,30.10,SE,135,0.0,0.0,34,0.00,RMK 73.8/39.0,,0.00,WUHU21623XXSP,2013-05-18 17:42:00,
2013-05-18 13:47:00,77.0,47.9,30.10,SE,135,0.0,5.6,36,0.00,RMK 73.9/40.0,,0.00,WUHU21623XXSP,2013-05-18 17:47:00,
2013-05-18 13:52:00,77.2,45.7,30.10,SE,135,0.0,5.6,33,0.00,RMK 73.9/39.0,,0.00,WUHU21623XXSP,2013-05-18 17:52:00,
2013-05-18 13:57:00,77.2,47.3,30.10,SE,135,0.0,1.1,35,0.00,RMK 74.1/39.0,,0.00,WUHU21623XXSP,2013-05-18 17:57:00,
2013-05-18 14:02:00,77.2,45.7,30.10,SE,135,4.9,4.9,33,0.00,RMK 74.1/39.0,,0.00,WUHU21623XXSP,2013-05-18 18:02:00,
2013-05-18 14:07:00,77.0,47.1,30.10,ESE,112,2.7,4.9,35,0.00,RMK 74.3/39.0,,0.00,WUHU21623XXSP,2013-05-18 18:07:00,
2013-05-18 14:12:00,77.4,47.5,30.10,South,180,0.0,2.7,35,0.00,RMK 74.3/39.0,,0.00,WUHU21623XXSP,2013-05-18 18:12:00,
2013-05-18 14:17:00,77.9,47.9,30.10,SE,135,0.7,0.7,35,0.00,RMK 74.3/40.0,,0.00,WUHU21623XXSP,2013-05-18 18:17:00,
2013-05-18 14:22:00,77.6,47.6,30.09,SE,135,0.0,0.7,35,0.00,RMK 74.5/39.0,,0.00,WUHU21623XXSP,2013-05-18 18:22:00,
2013-05-18 14:27:00,77.4,47.5,30.09,SE,135,8.5,8.5,35,0.00,RMK 74.5/39.0,,0.00,WUHU21623XXSP,2013-05-18 18:27:00,
2013-05-18 14:32:00,77.6,47.6,30.09,SE,135,8.1,8.5,35,0.00,RMK 74.5/39.0,,0.00,WUHU21623XXSP,2013-05-18 18:32:00,
2013-05-18 14:37:00,77.6,47.6,30.09,SE,135,0.0,8.1,35,0.00,RMK 74.5/39.0,,0.00,WUHU21623XXSP,2013-05-18 18:37:00,
2013-05-18 14:42:00,77.8,48.6,30.09,ESE,112,0.0,0.0,36,0.00,RMK 74.5/39.0,,0.00,WUHU21623XXSP,2013-05-18 18:42:00,
2013-05-18 14:47:00,78.1,48.8,30.08,SE,135,0.7,0.7,36,0.00,RMK 74.5/40.0,,0.00,WUHU21623XXSP,2013-05-18 18:47:00,
2013-05-18 14:52:00,78.1,48.8,30.08,SE,135,0.0,0.7,36,0.00,RMK 74.7/40.0,,0.00,WUHU21623XXSP,2013-05-18 18:52:00,
2013-05-18 14:57:00,78.1,48.8,30.08,WSW,247,0.0,0.0,36,0.00,RMK 74.7/40.0,,0.00,WUHU21623XXSP,2013-05-18 18:57:00,
2013-05-18 15:02:00,78.1,48.1,30.08,SSE,157,0.0,1.1,35,0.00,RMK 74.8/40.0,,0.00,WUHU21623XXSP,2013-05-18 19:02:00,
2013-05-18 15:07:00,78.1,48.1,30.08,SE,135,0.0,1.1,35,0.00,RMK 74.8/40.0,,0.00,WUHU21623XXSP,2013-05-18 19:07:00,
2013-05-18 15:12:00,77.6,47.6,30.07,ESE,112,0.0,0.0,35,0.00,RMK 74.8/40.0,,0.00,WUHU21623XXSP,2013-05-18 19:12:00,
2013-05-18 15:17:00,77.9,48.7,30.07,SE,135,0.0,0.0,36,0.00,RMK 74.8/41.0,,0.00,WUHU21623XXSP,2013-05-18 19:17:00,
2013-05-18 15:22:00,77.9,48.7,30.07,ESE,112,0.0,0.0,36,0.00,RMK 75.0/41.0,,0.00,WUHU21623XXSP,2013-05-18 19:22:00,
2013-05-18 15:27:00,77.9,48.7,30.07,South,180,0.0,0.0,36,0.00,RMK 75.0/41.0,,0.00,WUHU21623XXSP,2013-05-18 19:27:00,
2013-05-18 15:32:00,78.1,48.8,30.08,ESE,112,0.0,0.0,36,0.00,RMK 75.0/41.0,,0.00,WUHU21623XXSP,2013-05-18 19:32:00,
2013-05-18 15:37:00,77.9,48.7,30.07,SE,135,0.0,6.3,36,0.00,RMK 75.2/40.0,,0.00,WUHU21623XXSP,2013-05-18 19:37:00,
2013-05-18 15:42:00,77.9,48.7,30.07,SE,135,0.0,6.3,36,0.00,RMK 75.2/40.0,,0.00,WUHU21623XXSP,2013-05-18 19:42:00,
2013-05-18 15:47:00,77.6,49.1,30.07,South,180,0.0,0.2,37,0.00,RMK 75.2/40.0,,0.00,WUHU21623XXSP,2013-05-18 19:47:00,
2013-05-18 15:52:00,77.9,49.4,30.07,SE,135,0.0,0.2,37,0.00,RMK 75.2/41.0,,0.00,WUHU21623XXSP,2013-05-18 19:52:00,
2013-05-18 15:57:00,78.1,49.6,30.07,ESE,112,0.0,0.0,37,0.00,RMK 75.2/41.0,,0.00,WUHU21623XXSP,2013-05-18 19:57:00,
2013-05-18 16:02:00,77.9,49.4,30.06,SW,225,0.0,3.4,37,0.00,RMK 75.2/40.0,,0.00,WUHU21623XXSP,2013-05-18 20:02:00,
2013-05-18 16:07:00,77.9,49.4,30.06,SE,135,0.0,3.4,37,0.00,RMK 75.2/41.0,,0.00,WUHU21623XXSP,2013-05-18 20:07:00,
2013-05-18 16:12:00,78.1,49.6,30.06,SE,135,0.0,0.7,37,0.00,RMK 75.2/41.0,,0.00,WUHU21623XXSP,2013-05-18 20:12:00,
2013-05-18 16:17:00,77.9,49.4,30.06,ESE,112,0.0,0.7,37,0.00,RMK 75.4/41.0,,0.00,WUHU21623XXSP,2013-05-18 20:17:00,
2013-05-18 16:22:00,77.8,49.3,30.06,SE,135,0.0,0.0,37,0.00,RMK 75.4/41.0,,0.00,WUHU21623XXSP,2013-05-18 20:22:00,
2013-05-18 16:27:00,77.9,50.1,30.06,South,180,0.0,0.0,38,0.00,RMK 75.4/41.0,,0.00,WUHU21623XXSP,2013-05-18 20:27:00,
2013-05-18 16:32:00,78.1,50.3,30.06,South,180,0.0,0.0,38,0.00,RMK 75.4/42.0,,0.00,WUHU21623XXSP,2013-05-18 20:32:00,
2013-05-18 16:37:00,78.1,50.3,30.06,SE,135,0.0,0.0,38,0.00,RMK 75.6/42.0,,0.00,WUHU21623XXSP,2013-05-18 20:37:00,
2013-05-18 16:42:00,78.1,50.3,30.06,ESE,112,0.0,0.0,38,0.00,RMK 75.6/42.0,,0.00,WUHU21623XXSP,2013-05-18 20:42:00,
2013-05-18 16:47:00,77.9,50.1,30.06,SSW,202,0.0,0.0,38,0.00,RMK 75.6/41.0,,0.00,WUHU21623XXSP,2013-05-18 20:47:00,
2013-05-18 16:52:00,77.6,49.9,30.05,SSE,157,0.0,0.0,38,0.00,RMK 75.6/42.0,,0.00,WUHU21623XXSP,2013-05-18 20:52:00,
2013-05-18 16:57:00,77.8,50.0,30.05,SSW,202,0.0,0.0,38,0.00,RMK 75.6/42.0,,0.00,WUHU21623XXSP,2013-05-18 20:57:00,
2013-05-18 17:02:00,77.9,50.1,30.06,SE,135,1.6,1.6,38,0.00,RMK 75.6/42.0,,0.00,WUHU21623XXSP,2013-05-18 21:02:00,
2013-05-18 17:07:00,77.6,49.1,30.05,SE,135,0.0,4.7,37,0.00,RMK 75.7/42.0,,0.00,WUHU21623XXSP,2013-05-18 21:07:00,
2013-05-18 17:12:00,77.6,49.9,30.05,SW,225,0.0,4.7,38,0.00,RMK 75.7/42.0,,0.00,WUHU21623XXSP,2013-05-18 21:12:00,
2013-05-18 17:17:00,77.6,49.9,30.05,ESE,112,0.0,0.0,38,0.00,RMK 75.7/42.0,,0.00,WUHU21623XXSP,2013-05-18 21:17:00,
2013-05-18 17:22:00,77.6,49.9,30.05,SE,135,0.0,0.0,38,0.00,RMK 75.7/42.0,,0.00,WUHU21623XXSP,2013-05-18 21:22:00,
2013-05-18 17:27:00,77.4,49.7,30.05,SE,135,0.4,0.4,38,0.00,RMK 75.7/42.0,,0.00,WUHU21623XXSP,2013-05-18 21:27:00,
2013-05-18 17:32:00,77.4,49.7,30.05,SSE,157,0.0,0.4,38,0.00,RMK 75.7/42.0,,0.00,WUHU21623XXSP,2013-05-18 21:32:00,
2013-05-18 17:37:00,77.2,49.5,30.05,SSW,202,0.0,4.9,38,0.00,RMK 75.7/42.0,,0.00,WUHU21623XXSP,2013-05-18 21:37:00,
2013-05-18 17:42:00,77.0,49.3,30.05,SE,135,0.0,4.9,38,0.00,RMK 75.7/42.0,,0.00,WUHU21623XXSP,2013-05-18 21:42:00,
2013-05-18 17:47:00,77.0,49.3,30.05,West,270,0.0,0.0,38,0.00,RMK 75.7/41.0,,0.00,WUHU21623XXSP,2013-05-18 21:47:00,
2013-05-18 17:52:00,77.0,49.3,30.05,ESE,112,3.4,3.4,38,0.00,RMK 75.7/41.0,,0.00,WUHU21623XXSP,2013-05-18 21:52:00,
2013-05-18 17:57:00,77.0,49.3,30.05,SE,135,0.0,3.4,38,0.00,RMK 75.7/42.0,,0.00,WUHU21623XXSP,2013-05-18 21:57:00,
2013-05-18 18:02:00,76.9,48.5,30.05,SSW,202,0.0,0.0,37,0.00,RMK 75.6/42.0,,0.00,WUHU21623XXSP,2013-05-18 22:02:00,
2013-05-18 18:07:00,76.7,49.1,30.05,SE,135,0.0,0.0,38,0.00,RMK 75.4/42.0,,0.00,WUHU21623XXSP,2013-05-18 22:07:00,
2013-05-18 18:12:00,76.9,49.2,30.05,ESE,112,0.0,0.0,38,0.00,RMK 75.2/42.0,,0.00,WUHU21623XXSP,2013-05-18 22:12:00,
2013-05-18 18:17:00,76.7,49.1,30.04,SE,135,0.0,0.0,38,0.00,RMK 75.0/42.0,,0.00,WUHU21623XXSP,2013-05-18 22:17:00,
2013-05-18 18:22:00,76.5,48.9,30.04,SSE,157,0.0,0.0,38,0.00,RMK 74.8/42.0,,0.00,WUHU21623XXSP,2013-05-18 22:22:00,
2013-05-18 18:27:00,76.3,48.7,30.04,SSW,202,0.0,0.0,38,0.00,RMK 75.0/42.0,,0.00,WUHU21623XXSP,2013-05-18 22:27:00,
2013-05-18 18:32:00,76.1,48.5,30.04,SE,135,1.3,1.3,38,0.00,RMK 75.0/42.0,,0.00,WUHU21623XXSP,2013-05-18 22:32:00,
2013-05-18 18:37:00,76.1,48.5,30.04,SSW,202,0.0,1.3,38,0.00,RMK 75.0/42.0,,0.00,WUHU21623XXSP,2013-05-18 22:37:00,
2013-05-18 18:42:00,76.0,48.4,30.05,SE,135,0.0,0.0,38,0.00,RMK 74.8/42.0,,0.00,WUHU21623XXSP,2013-05-18 22:42:00,
2013-05-18 18:47:00,75.8,48.3,30.04,SE,135,0.0,0.0,38,0.00,RMK 74.7/42.0,,0.00,WUHU21623XXSP,2013-05-18 22:47:00,
2013-05-18 18:52:00,75.8,48.3,30.04,South,180,0.0,0.0,38,0.00,RMK 74.7/42.0,,0.00,WUHU21623XXSP,2013-05-18 22:52:00,
2013-05-18 18:57:00,75.6,47.4,30.04,ESE,112,0.0,0.4,37,0.00,RMK 74.5/42.0,,0.00,WUHU21623XXSP,2013-05-18 22:57:00,
2013-05-18 19:02:00,75.4,47.2,30.05,SE,135,2.2,2.2,37,0.00,RMK 74.3/42.0,,0.00,WUHU21623XXSP,2013-05-18 23:02:00,
2013-05-18 19:07:00,75.4,47.2,30.05,SE,135,0.0,2.2,37,0.00,RMK 74.3/42.0,,0.00,WUHU21623XXSP,2013-05-18 23:07:00,
2013-05-18 19:12:00,75.4,47.2,30.05,SE,135,0.0,0.0,37,0.00,RMK 74.1/42.0,,0.00,WUHU21623XXSP,2013-05-18 23:12:00,
2013-05-18 19:17:00,75.2,47.7,30.05,SE,135,0.0,0.0,38,0.00,RMK 74.1/42.0,,0.00,WUHU21623XXSP,2013-05-18 23:17:00,
2013-05-18 19:22:00,75.1,47.6,30.05,SW,225,0.0,0.0,38,0.00,RMK 74.1/42.0,,0.00,WUHU21623XXSP,2013-05-18 23:22:00,
2013-05-18 19:27:00,74.9,47.5,30.05,SW,225,0.0,0.0,38,0.00,RMK 74.3/42.0,,0.00,WUHU21623XXSP,2013-05-18 23:27:00,
2013-05-18 19:32:00,74.5,47.1,30.05,SW,225,0.0,0.0,38,0.00,RMK 74.3/42.0,,0.00,WUHU21623XXSP,2013-05-18 23:32:00,
2013-05-18 19:37:00,74.5,47.1,30.05,SE,135,0.0,0.0,38,0.00,RMK 74.5/42.0,,0.00,WUHU21623XXSP,2013-05-18 23:37:00,
2013-05-18 19:42:00,74.2,46.8,30.05,SE,135,0.0,0.0,38,0.00,RMK 74.5/41.0,,0.00,WUHU21623XXSP,2013-05-18 23:42:00,
2013-05-18 19:47:00,74.0,45.9,30.05,SE,135,0.0,0.0,37,0.00,RMK 74.5/41.0,,0.00,WUHU21623XXSP,2013-05-18 23:47:00,
2013-05-18 19:52:00,73.8,45.8,30.05,SSE,157,0.0,0.0,37,0.00,RMK 74.7/41.0,,0.00,WUHU21623XXSP,2013-05-18 23:52:00,
2013-05-18 19:57:00,73.6,46.3,30.05,SW,225,0.0,0.0,38,0.00,RMK 74.7/41.0,,0.00,WUHU21623XXSP,2013-05-18 23:57:00,
2013-05-18 20:02:00,73.4,46.1,30.05,SW,225,0.0,0.0,38,0.00,RMK 74.7/41.0,,0.00,WUHU21623XXSP,2013-05-19 00:02:00,
2013-05-18 20:07:00,73.3,46.0,30.05,South,180,0.0,0.0,38,0.00,RMK 74.7/41.0,,0.00,WUHU21623XXSP,2013-05-19 00:07:00,
2013-05-18 20:12:00,72.9,45.7,30.05,SSE,157,0.0,0.0,38,0.00,RMK 74.5/40.0,,0.00,WUHU21623XXSP,2013-05-19 00:12:00,
2013-05-18 20:17:00,72.7,45.5,30.05,SSE,157,0.0,0.0,38,0.00,RMK 74.5/40.0,,0.00,WUHU21623XXSP,2013-05-19 00:17:00,
2013-05-18 20:22:00,72.5,45.3,30.06,SSE,157,0.0,0.0,38,0.00,RMK 74.3/40.0,,0.00,WUHU21623XXSP,2013-05-19 00:22:00,
2013-05-18 20:27:00,72.2,45.0,30.06,SE,135,0.0,0.0,38,0.00,RMK 74.1/40.0,,0.00,WUHU21623XXSP,2013-05-19 00:27:00,
2013-05-18 20:32:00,72.0,44.9,30.06,South,180,0.0,0.0,38,0.00,RMK 74.1/41.0,,0.00,WUHU21623XXSP,2013-05-19 00:32:00,
2013-05-18 20:37:00,71.8,44.7,30.06,SSE,157,0.0,0.0,38,0.00,RMK 74.1/41.0,,0.00,WUHU21623XXSP,2013-05-19 00:37:00,
2013-05-18 20:42:00,71.5,45.1,30.06,SE,135,0.0,0.0,39,0.00,RMK 73.9/41.0,,0.00,WUHU21623XXSP,2013-05-19 00:42:00,
2013-05-18 20:47:00,71.3,45.6,30.05,SSW,202,0.0,0.0,40,0.00,RMK 73.9/41.0,,0.00,WUHU21623XXSP,2013-05-19 00:47:00,
2013-05-18 20:52:00,70.7,45.1,30.05,SE,135,0.0,0.0,40,0.00,RMK 73.8/41.0,,0.00,WUHU21623XXSP,2013-05-19 00:52:00,
2013-05-18 20:57:00,70.6,45.0,30.06,SE,135,0.0,0.0,40,0.00,RMK 73.8/41.0,,0.00,WUHU21623XXSP,2013-05-19 00:57:00,
2013-05-18 21:02:00,70.4,45.5,30.06,SSE,157,0.0,0.0,41,0.00,RMK 73.8/41.0,,0.00,WUHU21623XXSP,2013-05-19 01:02:00,
2013-05-18 21:07:00,70.0,45.8,30.06,SSE,157,0.0,0.0,42,0.00,RMK 73.8/41.0,,0.00,WUHU21623XXSP,2013-05-19 01:07:00,
2013-05-18 21:12:00,69.7,45.5,30.06,SSE,157,0.0,0.0,42,0.00,RMK 73.6/41.0,,0.00,WUHU21623XXSP,2013-05-19 01:12:00,
2013-05-18 21:17:00,69.5,45.9,30.06,SSE,157,0.0,0.0,43,0.00,RMK 73.6/41.0,,0.00,WUHU21623XXSP,2013-05-19 01:17:00,
2013-05-18 21:22:00,69.1,45.6,30.06,SSE,157,0.0,0.0,43,0.00,RMK 73.6/41.0,,0.00,WUHU21623XXSP,2013-05-19 01:22:00,
2013-05-18 21:27:00,68.2,45.4,30.06,SSW,202,0.0,0.0,44,0.00,RMK 73.4/41.0,,0.00,WUHU21623XXSP,2013-05-19 01:27:00,
2013-05-18 21:32:00,68.0,45.2,30.06,South,180,0.0,0.0,44,0.00,RMK 73.4/41.0,,0.00,WUHU21623XXSP,2013-05-19 01:32:00,
2013-05-18 21:37:00,67.9,45.1,30.06,SSE,157,0.0,0.0,44,0.00,RMK 73.4/41.0,,0.00,WUHU21623XXSP,2013-05-19 01:37:00,
2013-05-18 21:42:00,67.7,44.9,30.06,ESE,112,0.0,0.0,44,0.00,RMK 73.2/41.0,,0.00,WUHU21623XXSP,2013-05-19 01:42:00,
2013-05-18 21:47:00,67.7,44.9,30.06,SE,135,0.0,0.0,44,0.00,RMK 73.2/41.0,,0.00,WUHU21623XXSP,2013-05-19 01:47:00,
2013-05-18 21:52:00,67.5,44.8,30.06,ESE,112,0.0,0.0,44,0.00,RMK 73.2/41.0,,0.00,WUHU21623XXSP,2013-05-19 01:52:00,
2013-05-18 21:57:00,67.3,44.6,30.06,South,180,0.0,0.0,44,0.00,RMK 73.2/41.0,,0.00,WUHU21623XXSP,2013-05-19 01:57:00,
2013-05-18 22:02:00,67.3,44.6,30.06,SE,135,0.0,0.0,44,0.00,RMK 73.2/42.0,,0.00,WUHU21623XXSP,2013-05-19 02:02:00,
2013-05-18 22:07:00,67.3,44.6,30.06,SSE,157,0.0,0.0,44,0.00,RMK 73.0/42.0,,0.00,WUHU21623XXSP,2013-05-19 02:07:00,
2013-05-18 22:12:00,67.0,44.9,30.06,SSE,157,0.0,0.0,45,0.00,RMK 73.2/42.0,,0.00,WUHU21623XXSP,2013-05-19 02:12:00,
2013-05-18 22:17:00,66.8,44.7,30.07,ESE,112,0.0,0.0,45,0.00,RMK 73.2/42.0,,0.00,WUHU21623XXSP,2013-05-19 02:17:00,
2013-05-18 22:22:00,66.4,44.4,30.06,SE,135,0.0,0.0,45,0.00,RMK 73.2/42.0,,0.00,WUHU21623XXSP,2013-05-19 02:22:00,
2013-05-18 22:27:00,66.4,44.4,30.07,SE,135,0.0,0.0,45,0.00,RMK 73.0/42.0,,0.00,WUHU21623XXSP,2013-05-19 02:27:00,
2013-05-18 22:32:00,66.2,44.8,30.07,SE,135,0.0,0.0,46,0.00,RMK 73.0/42.0,,0.00,WUHU21623XXSP,2013-05-19 02:32:00,
2013-05-18 22:37:00,66.1,45.3,30.07,SE,135,0.0,0.0,47,0.00,RMK 73.0/42.0,,0.00,WUHU21623XXSP,2013-05-19 02:37:00,
2013-05-18 22:42:00,65.9,45.1,30.07,SE,135,0.0,0.0,47,0.00,RMK 73.0/42.0,,0.00,WUHU21623XXSP,2013-05-19 02:42:00,
2013-05-18 22:47:00,65.5,44.7,30.07,SE,135,0.0,0.0,47,0.00,RMK 73.0/42.0,,0.00,WUHU21623XXSP,2013-05-19 02:47:00,
2013-05-18 22:52:00,65.3,45.1,30.07,SE,135,0.0,0.0,48,0.00,RMK 73.0/42.0,,0.00,WUHU21623XXSP,2013-05-19 02:52:00,
2013-05-18 22:57:00,65.0,45.4,30.07,SE,135,0.0,0.0,49,0.00,RMK 73.0/42.0,,0.00,WUHU21623XXSP,2013-05-19 02:57:00,
2013-05-18 23:02:00,64.6,45.0,30.07,SE,135,0.0,0.0,49,0.00,RMK 73.0/42.0,,0.00,WUHU21623XXSP,2013-05-19 03:02:00,
2013-05-18 23:07:00,64.1,45.1,30.07,SE,135,0.0,0.0,50,0.00,RMK 72.9/42.0,,0.00,WUHU21623XXSP,2013-05-19 03:07:00,
2013-05-18 23:12:00,63.7,44.7,30.07,SE,135,0.0,0.0,50,0.00,RMK 72.9/42.0,,0.00,WUHU21623XXSP,2013-05-19 03:12:00,
2013-05-18 23:17:00,63.7,45.3,30.07,SE,135,0.0,0.0,51,0.00,RMK 72.9/42.0,,0.00,WUHU21623XXSP,2013-05-19 03:17:00,
2013-05-18 23:22:00,63.5,45.1,30.06,SE,135,0.0,0.0,51,0.00,RMK 72.9/42.0,,0.00,WUHU21623XXSP,2013-05-19 03:22:00,
2013-05-18 23:27:00,63.2,45.3,30.07,SE,135,0.0,0.0,52,0.00,RMK 72.9/42.0,,0.00,WUHU21623XXSP,2013-05-19 03:27:00,
2013-05-18 23:32:00,63.2,45.3,30.07,SE,135,0.0,0.0,52,0.00,RMK 72.7/42.0,,0.00,WUHU21623XXSP,2013-05-19 03:32:00,
2013-05-18 23:37:00,62.8,45.0,30.06,SE,135,0.0,0.0,52,0.00,RMK 72.7/42.0,,0.00,WUHU21623XXSP,2013-05-19 03:37:00,
2013-05-18 23:42:00,62.6,45.3,30.06,SE,135,0.0,0.0,53,0.00,RMK 72.7/42.0,,0.00,WUHU21623XXSP,2013-05-19 03:42:00,
2013-05-18 23:47:00,62.5,45.2,30.06,SE,135,0.0,0.0,53,0.00,RMK 72.7/42.0,,0.00,WUHU21623XXSP,2013-05-19 03:47:00,
2013-05-18 23:52:00,62.1,44.8,30.06,SE,135,0.0,0.0,53,0.00,RMK 72.7/42.0,,0.00,WUHU21623XXSP,2013-05-19 03:52:00,
2013-05-18 23:57:00,61.9,44.6,30.06,SE,135,0.0,0.0,53,0.00,RMK 72.7/42.0,,0.00,WUHU21623XXSP,2013-05-19 03:57:00,